TimeCDT,TemperatureF,Dew PointF,Humidity,Sea Level PressureIn,VisibilityMPH,Wind Direction,Wind SpeedMPH,Gust SpeedMPH,PrecipitationIn,Events,Conditions,WindDirDegrees,DateUTC
12:14 AM,48.2,33.8,58,29.74,10.0,WSW,6.9,-,N/A,,Clear,250,2012-10-09 05:14:00
12:33 AM,50.0,33.8,54,29.75,10.0,WSW,6.9,-,N/A,,Clear,250,2012-10-09 05:33:00
12:54 AM,48.2,33.8,58,29.75,10.0,West,6.9,-,N/A,,Clear,260,2012-10-09 05:54:00
1:14 AM,48.2,33.8,58,29.75,10.0,WNW,10.4,-,N/A,,Clear,290,2012-10-09 06:14:00
1:34 AM,46.4,33.8,62,29.75,10.0,West,5.8,-,N/A,,Clear,280,2012-10-09 06:34:00
1:54 AM,46.4,33.8,62,29.75,10.0,West,6.9,-,N/A,,Clear,280,2012-10-09 06:54:00
2:13 AM,46.4,33.8,62,29.76,10.0,West,5.8,-,N/A,,Scattered Clouds,280,2012-10-09 07:13:00
3:13 AM,46.4,32.0,57,29.75,10.0,WNW,8.1,-,N/A,,Overcast,290,2012-10-09 08:13:00
3:34 AM,46.4,33.8,62,29.75,10.0,WNW,6.9,-,N/A,,Overcast,290,2012-10-09 08:34:00
3:54 AM,46.4,33.8,62,29.76,10.0,WNW,9.2,-,N/A,,Overcast,290,2012-10-09 08:54:00
4:13 AM,46.4,33.8,62,29.76,10.0,WNW,8.1,-,N/A,Rain,Light Rain,300,2012-10-09 09:13:00
4:34 AM,46.4,33.8,62,29.77,10.0,NW,8.1,-,N/A,,Light Drizzle,310,2012-10-09 09:34:00
4:54 AM,46.4,30.2,53,29.77,10.0,NW,9.2,-,N/A,,Overcast,310,2012-10-09 09:54:00
5:14 AM,46.4,30.2,53,29.78,10.0,WNW,8.1,-,N/A,,Overcast,300,2012-10-09 10:14:00
5:34 AM,46.4,28.4,50,29.78,10.0,WNW,10.4,-,N/A,,Mostly Cloudy,300,2012-10-09 10:34:00
5:53 AM,46.4,28.4,50,29.79,10.0,WNW,10.4,-,N/A,,Mostly Cloudy,300,2012-10-09 10:53:00
6:14 AM,46.4,26.6,46,29.80,10.0,WNW,16.1,24.2,N/A,,Mostly Cloudy,300,2012-10-09 11:14:00
6:34 AM,46.4,26.6,46,29.80,10.0,WNW,12.7,21.9,N/A,,Overcast,300,2012-10-09 11:34:00
7:14 AM,44.6,26.6,49,29.81,10.0,WNW,11.5,-,N/A,,Scattered Clouds,290,2012-10-09 12:14:00
7:34 AM,44.6,26.6,49,29.81,10.0,WNW,10.4,-,N/A,,Mostly Cloudy,290,2012-10-09 12:34:00
7:53 AM,44.6,26.6,49,29.81,10.0,WNW,9.2,-,N/A,,Scattered Clouds,290,2012-10-09 12:53:00
8:14 AM,41.0,26.6,57,29.82,10.0,West,5.8,-,N/A,,Scattered Clouds,270,2012-10-09 13:14:00
8:34 AM,42.8,26.6,53,29.82,10.0,West,9.2,-,N/A,,Clear,280,2012-10-09 13:34:00
8:54 AM,42.8,26.6,53,29.83,10.0,WNW,17.3,26.5,N/A,,Clear,300,2012-10-09 13:54:00
9:14 AM,42.8,24.8,49,29.83,10.0,WNW,18.4,28.8,N/A,,Clear,300,2012-10-09 14:14:00
9:34 AM,44.6,24.8,46,29.83,10.0,West,20.7,25.3,N/A,,Clear,280,2012-10-09 14:34:00
9:53 AM,44.6,24.8,46,29.83,10.0,West,23.0,29.9,N/A,,Clear,280,2012-10-09 14:53:00
10:14 AM,46.4,24.8,43,29.83,10.0,WNW,24.2,33.4,N/A,,Scattered Clouds,290,2012-10-09 15:14:00
10:34 AM,44.6,23.0,43,29.84,10.0,WNW,23.0,29.9,N/A,,Overcast,290,2012-10-09 15:34:00
10:53 AM,44.6,24.8,46,29.85,10.0,WNW,24.2,33.4,N/A,,Overcast,290,2012-10-09 15:53:00
11:14 AM,44.6,24.8,46,29.85,10.0,WNW,25.3,32.2,N/A,,Mostly Cloudy,300,2012-10-09 16:14:00
11:53 AM,44.6,26.6,49,29.86,10.0,WNW,26.5,32.2,N/A,,Overcast,300,2012-10-09 16:53:00
12:14 PM,44.6,28.4,53,29.86,10.0,WNW,24.2,31.1,N/A,,Mostly Cloudy,300,2012-10-09 17:14:00
12:34 PM,46.4,28.4,50,29.86,10.0,WNW,20.7,33.4,N/A,,Mostly Cloudy,300,2012-10-09 17:34:00
12:53 PM,46.4,26.6,46,29.87,10.0,NW,21.9,33.4,N/A,,Mostly Cloudy,310,2012-10-09 17:53:00
1:14 PM,46.4,26.6,46,29.87,10.0,NW,23.0,32.2,N/A,,Overcast,310,2012-10-09 18:14:00
1:34 PM,46.4,28.4,50,29.88,10.0,NNW,20.7,28.8,N/A,,Mostly Cloudy,330,2012-10-09 18:34:00
1:53 PM,44.6,28.4,53,29.89,10.0,NNW,24.2,31.1,N/A,,Overcast,330,2012-10-09 18:53:00
2:14 PM,44.6,26.6,49,29.90,10.0,NW,21.9,29.9,N/A,,Overcast,320,2012-10-09 19:14:00
2:34 PM,44.6,26.6,49,29.91,10.0,NNW,24.2,32.2,N/A,,Overcast,330,2012-10-09 19:34:00
2:53 PM,44.6,26.6,49,29.92,10.0,NW,19.6,31.1,N/A,,Overcast,320,2012-10-09 19:53:00
3:14 PM,44.6,26.6,49,29.93,10.0,NNW,24.2,33.4,N/A,,Overcast,340,2012-10-09 20:14:00
3:34 PM,44.6,26.6,49,29.94,10.0,NW,23.0,29.9,N/A,,Overcast,320,2012-10-09 20:34:00
3:53 PM,42.8,26.6,53,29.95,10.0,NNW,23.0,28.8,N/A,,Overcast,330,2012-10-09 20:53:00
4:14 PM,42.8,26.6,53,29.95,10.0,NNW,21.9,26.5,N/A,,Overcast,340,2012-10-09 21:14:00
4:34 PM,42.8,24.8,49,29.96,10.0,NNW,15.0,25.3,N/A,,Overcast,330,2012-10-09 21:34:00
4:53 PM,44.6,23.0,43,29.96,10.0,NW,25.3,29.9,N/A,,Overcast,320,2012-10-09 21:53:00
5:14 PM,44.6,21.2,39,29.97,10.0,NW,18.4,-,N/A,,Overcast,320,2012-10-09 22:14:00
5:34 PM,44.6,21.2,39,29.98,10.0,NNW,13.8,23.0,N/A,,Overcast,330,2012-10-09 22:34:00
5:53 PM,44.6,21.2,39,29.99,10.0,NNW,19.6,25.3,N/A,,Overcast,340,2012-10-09 22:53:00
6:14 PM,42.8,21.2,42,29.99,10.0,NNW,13.8,-,N/A,,Overcast,340,2012-10-09 23:14:00
6:33 PM,42.8,19.4,39,30.00,10.0,NW,12.7,17.3,N/A,,Overcast,320,2012-10-09 23:33:00
6:54 PM,42.8,19.4,39,30.00,10.0,NW,13.8,-,N/A,,Overcast,320,2012-10-09 23:54:00
7:14 PM,42.8,17.6,36,30.01,10.0,NW,11.5,-,N/A,,Overcast,320,2012-10-10 00:14:00
7:33 PM,42.8,19.4,39,30.01,10.0,NW,9.2,-,N/A,,Overcast,320,2012-10-10 00:33:00
7:54 PM,42.8,19.4,39,30.01,10.0,NW,8.1,-,N/A,,Overcast,310,2012-10-10 00:54:00
8:14 PM,42.8,19.4,39,30.02,10.0,NW,8.1,-,N/A,,Overcast,310,2012-10-10 01:14:00
8:33 PM,41.0,19.4,42,30.02,10.0,NW,6.9,-,N/A,,Overcast,320,2012-10-10 01:33:00
8:54 PM,41.0,19.4,42,30.02,10.0,NW,5.8,-,N/A,,Overcast,310,2012-10-10 01:54:00
9:14 PM,41.0,19.4,42,30.03,10.0,WNW,4.6,-,N/A,,Overcast,300,2012-10-10 02:14:00
9:33 PM,39.2,19.4,45,30.03,10.0,WNW,5.8,-,N/A,,Overcast,290,2012-10-10 02:33:00
9:54 PM,39.2,21.2,49,30.03,10.0,WNW,5.8,-,N/A,,Overcast,300,2012-10-10 02:54:00
10:14 PM,39.2,21.2,49,30.04,10.0,WNW,6.9,-,N/A,,Overcast,290,2012-10-10 03:14:00
10:33 PM,37.4,21.2,52,30.04,10.0,West,5.8,-,N/A,,Overcast,280,2012-10-10 03:33:00
10:54 PM,37.4,21.2,52,30.04,10.0,West,4.6,-,N/A,,Overcast,270,2012-10-10 03:54:00
11:14 PM,37.4,21.2,52,30.04,10.0,West,6.9,-,N/A,,Mostly Cloudy,280,2012-10-10 04:14:00
11:33 PM,37.4,21.2,52,30.04,10.0,West,5.8,-,N/A,,Mostly Cloudy,270,2012-10-10 04:33:00
11:54 PM,37.4,21.2,52,30.04,10.0,West,5.8,-,N/A,,Overcast,280,2012-10-10 04:54:00